EW3244 Weather Reports


Display with metric or nautical units.
time (UTC)temp
F
wind
direction
speed
MPH
gust
MPH
rain 1hr
in
rain 24hr
in
rain mn
in
humidity
%
barometer
mb
20260508060040 49 310 2.0 7.0 0.00 0.00 0.00 36 1022.9
20260508054536 48 308 1.0 6.0 0.00 0.00 0.00 41 1022.8
20260508053035 47 298 2.0 6.0 0.00 0.00 0.00 44 1022.7
20260508051531 46 279 1.0 8.0 0.00 0.00 0.00 46 1022.6
20260508050027 46 290 0.0 3.0 0.00 0.00 0.00 49 1022.4
20260508044523 45 287 0.0 1.0 0.00 0.00 0.00 53 1022.2
20260508043039 43 287 0.0 1.0 0.00 0.00 0.00 57 1022.2
20260508041517 40 273 0.0 2.0 0.00 0.00 0.00 63 1022.1
20260508040021 38 359 0.0 0.0 0.00 0.00 0.00 67 1021.9
20260508034514 36 359 0.0 1.0 0.00 0.00 0.00 69 1021.7
20260508033010 35 359 0.0 0.0 0.00 0.00 0.00 66 1021.7
20260508031517 36 359 0.0 1.0 0.00 0.00 0.00 64 1021.6
20260508030005 36 359 0.0 1.0 0.00 0.00 0.00 63 1021.5
20260508024502 36 314 0.0 2.0 0.00 0.00 0.00 63 1021.2
20260508023101 37 310 0.0 2.0 0.00 0.00 0.00 62 1021.1
20260508021600 38 315 0.0 5.0 0.00 0.00 0.00 61 1021.0
20260508020110 38 310 1.0 3.0 0.00 0.00 0.00 60 1020.9
20260508014554 38 318 1.0 6.0 0.00 0.00 0.00 63 1020.8
20260508013100 37 298 0.0 2.0 0.00 0.00 0.00 62 1020.6
20260508011551 37 287 0.0 2.0 0.00 0.00 0.00 62 1020.6
20260508010047 37 317 0.0 1.0 0.00 0.00 0.00 60 1020.4
20260508004545 38 324 0.0 1.0 0.00 0.00 0.00 59 1020.2
20260508003042 38 317 0.0 2.0 0.00 0.00 0.00 60 1020.0
20260508001540 38 325 0.0 3.0 0.00 0.00 0.00 60 1019.9
20260508000037 38 296 0.0 3.0 0.00 0.00 0.00 60 1019.8
20260507234540 38 308 0.0 2.0 0.00 0.00 0.00 59 1019.7
20260507233032 38 313 0.0 1.0 0.00 0.00 0.00 57 1019.6
20260507231531 38 314 0.0 1.0 0.00 0.00 0.00 56 1019.5
20260507230028 39 314 0.0 1.0 0.00 0.00 0.00 55 1019.4
20260507224524 40 322 0.0 5.0 0.00 0.00 0.00 53 1019.2
20260507223021 40 315 0.0 2.0 0.00 0.00 0.00 53 1019.1
20260507221520 41 325 0.0 3.0 0.00 0.00 0.00 51 1019.1
20260507220016 41 306 0.0 3.0 0.00 0.00 0.00 50 1019.0
20260507214514 42 324 1.0 4.0 0.00 0.00 0.00 49 1018.8
20260507213016 42 300 1.0 4.0 0.00 0.00 0.00 48 1018.7
20260507211511 43 298 1.0 5.0 0.00 0.00 0.00 47 1018.6
20260507210011 43 303 0.0 3.0 0.00 0.00 0.00 45 1018.5
20260507204509 44 288 1.0 4.0 0.00 0.00 0.00 44 1018.4
20260507203007 45 286 1.0 3.0 0.00 0.00 0.00 43 1018.1
20260507201505 45 296 1.0 3.0 0.00 0.00 0.00 42 1017.9
20260507200005 45 293 0.0 2.0 0.00 0.00 0.00 43 1017.8
20260507194503 46 300 0.0 4.0 0.00 0.00 0.00 41 1017.6
20260507193101 47 314 0.0 1.0 0.00 0.00 0.00 42 1017.5
20260507191616 48 314 0.0 2.0 0.00 0.00 0.00 39 1017.2
20260507190056 49 293 0.0 2.0 0.00 0.00 0.00 41 1017.0
20260507184601 52 303 0.0 3.0 0.00 0.00 0.00 38 1016.7
20260507183051 54 279 1.0 3.0 0.00 0.00 0.00 36 1016.5
20260507181550 54 255 0.0 3.0 0.00 0.00 0.00 36 1016.4
20260507180048 56 305 2.0 6.0 0.00 0.00 0.00 33 1016.1
20260507174547 57 225 0.0 3.0 0.00 0.00 0.00 35 1015.8
20260507173045 58 77 2.0 5.0 0.00 0.00 0.00 35 1015.6
20260507171549 58 71 4.0 6.0 0.00 0.00 0.00 34 1015.4
20260507170042 60 82 0.0 3.0 0.00 0.00 0.00 30 1015.3
20260507164555 60 90 1.0 3.0 0.00 0.00 0.00 32 1015.1
20260507163039 59 92 2.0 6.0 0.00 0.00 0.00 32 1015.1
20260507161539 60 147 1.0 4.0 0.00 0.00 0.00 31 1015.1
20260507160036 60 105 0.0 7.0 0.00 0.00 0.00 32 1014.9
20260507154536 60 114 2.0 6.0 0.00 0.00 0.00 33 1014.9
20260507153031 60 101 1.0 9.0 0.00 0.00 0.00 34 1014.8
20260507151529 60 86 4.0 8.0 0.00 0.00 0.00 32 1014.7
20260507150027 59 104 1.0 9.0 0.00 0.00 0.00 33 1014.7
20260507144524 60 96 5.0 10.0 0.00 0.00 0.00 34 1014.6
20260507143038 59 72 1.0 10.0 0.00 0.00 0.00 33 1014.5
20260507141520 60 124 1.0 4.0 0.00 0.00 0.00 33 1014.5
20260507140020 59 78 3.0 9.0 0.00 0.00 0.00 34 1014.5
20260507134517 59 347 2.0 10.0 0.00 0.00 0.00 32 1014.4
20260507133014 60 136 1.0 7.0 0.00 0.00 0.00 33 1014.3
20260507131512 59 99 3.0 10.0 0.00 0.00 0.00 35 1014.3
20260507130026 59 66 5.0 12.0 0.00 0.00 0.00 36 1014.2
20260507124507 59 71 1.0 9.0 0.00 0.00 0.00 35 1014.2
20260507123005 58 38 5.0 10.0 0.00 0.00 0.00 35 1014.1
20260507121503 59 102 1.0 8.0 0.00 0.00 0.00 36 1014.1
20260507120002 58 52 7.0 12.0 0.00 0.00 0.00 33 1014.1
20260507114601 59 53 3.0 6.0 0.00 0.00 0.00 33 1014.0
20260507113058 59 84 2.0 7.0 0.00 0.00 0.00 33 1014.0
20260507111556 58 73 3.0 8.0 0.00 0.00 0.00 37 1014.1
20260507110055 58 103 2.0 7.0 0.00 0.00 0.00 36 1014.0
20260507104558 57 47 2.0 7.0 0.00 0.00 0.00 36 1013.9
20260507103051 58 60 1.0 5.0 0.00 0.00 0.00 38 1013.8
20260507101548 58 192 1.0 7.0 0.00 0.00 0.00 38 1013.8
20260507100054 56 71 2.0 5.0 0.00 0.00 0.00 42 1013.7
20260507094544 56 62 4.0 8.0 0.00 0.00 0.00 39 1013.7
20260507093043 55 137 1.0 5.0 0.00 0.00 0.00 43 1013.7
20260507091541 55 137 1.0 6.0 0.00 0.00 0.00 43 1013.7
20260507090043 55 80 2.0 5.0 0.00 0.00 0.00 45 1013.7
20260507084539 54 51 3.0 5.0 0.00 0.00 0.00 46 1013.6
20260507083032 53 64 0.0 4.0 0.00 0.00 0.00 49 1013.5
20260507081532 52 44 2.0 5.0 0.00 0.00 0.00 49 1013.4
20260507080030 52 66 2.0 4.0 0.00 0.00 0.00 48 1013.3
20260507074529 53 315 1.0 4.0 0.00 0.00 0.00 49 1013.3
20260507073027 50 72 1.0 6.0 0.00 0.00 0.00 50 1013.3
20260507071531 51 70 0.0 3.0 0.00 0.00 0.00 51 1013.2
20260507070020 49 19 1.0 5.0 0.00 0.00 0.00 54 1013.2
20260507064533 49 63 3.0 6.0 0.00 0.00 0.00 55 1013.1
20260507063019 48 43 1.0 6.0 0.00 0.00 0.00 57 1013.0
20260507061515 47 40 2.0 5.0 0.00 0.00 0.00 59 1012.9